Wetterdaten: Sonntag, 15.01.2017
Datum Zeit Temp. A. Feuchte A. Luftdruck Regen Wind Richtung Richtung Sonnenschein Solar
15.01.2017 00:00 -0,2 C 88 % 1014,9 hPa 0,0 l/m 26,3 km/h (4 Bft) W22.5 280 0 min 0 W/m
15.01.2017 00:05 -0,2 C 88 % 1014,9 hPa 0,0 l/m 24,0 km/h (4 Bft) W-NW22.5 285 0 min 0 W/m
15.01.2017 00:10 -0,2 C 88 % 1014,9 hPa 0,0 l/m 22,3 km/h (4 Bft) W-NW22.5 290 0 min 0 W/m
15.01.2017 00:15 -0,2 C 88 % 1014,9 hPa 0,0 l/m 19,7 km/h (3 Bft) W-NW22.5 295 0 min 0 W/m
15.01.2017 00:20 -0,2 C 88 % 1014,9 hPa 0,0 l/m 22,5 km/h (4 Bft) W-NW22.5 290 0 min 0 W/m
15.01.2017 00:25 0,0 C 88 % 1014,9 hPa 0,0 l/m 22,0 km/h (4 Bft) W-NW22.5 285 0 min 0 W/m
15.01.2017 00:30 0,1 C 88 % 1014,9 hPa 0,0 l/m 22,5 km/h (4 Bft) W-NW22.5 295 0 min 0 W/m
15.01.2017 00:35 0,1 C 88 % 1014,9 hPa 0,0 l/m 26,0 km/h (4 Bft) W-NW22.5 285 0 min 0 W/m
15.01.2017 00:40 0,1 C 88 % 1014,9 hPa 0,0 l/m 22,0 km/h (4 Bft) W-NW22.5 290 0 min 0 W/m
15.01.2017 00:45 0,1 C 88 % 1014,9 hPa 0,0 l/m 23,3 km/h (4 Bft) W-NW22.5 285 0 min 0 W/m
15.01.2017 00:50 0,0 C 88 % 1014,9 hPa 0,0 l/m 19,4 km/h (3 Bft) W-NW22.5 290 0 min 0 W/m
15.01.2017 00:55 0,0 C 88 % 1014,9 hPa 0,0 l/m 21,5 km/h (4 Bft) W-NW22.5 300 0 min 0 W/m
15.01.2017 01:00 0,0 C 88 % 1014,9 hPa 0,0 l/m 22,1 km/h (4 Bft) W-NW45 295 0 min 0 W/m
15.01.2017 01:05 0,1 C 88 % 1014,9 hPa 0,0 l/m 26,5 km/h (4 Bft) W-NW22.5 295 0 min 0 W/m
15.01.2017 01:10 0,1 C 88 % 1014,9 hPa 0,0 l/m 26,5 km/h (4 Bft) W-NW22.5 295 0 min 0 W/m
15.01.2017 01:15 0,1 C 88 % 1014,9 hPa 0,0 l/m 29,8 km/h (5 Bft) NW22.5 310 0 min 0 W/m
15.01.2017 01:20 0,2 C 88 % 1014,9 hPa 0,0 l/m 23,0 km/h (4 Bft) NW22.5 305 0 min 0 W/m
15.01.2017 01:25 0,2 C 88 % 1014,9 hPa 0,0 l/m 24,6 km/h (4 Bft) NW22.5 305 0 min 0 W/m
15.01.2017 01:30 0,1 C 88 % 1014,9 hPa 0,0 l/m 23,7 km/h (4 Bft) W-NW22.5 295 0 min 0 W/m
15.01.2017 01:35 0,2 C 88 % 1014,9 hPa 0,0 l/m 24,2 km/h (4 Bft) W-NW 300 0 min 0 W/m
15.01.2017 01:40 0,2 C 88 % 1014,9 hPa 0,0 l/m 20,1 km/h (4 Bft) NW22.5 305 0 min 0 W/m
15.01.2017 01:45 0,3 C 88 % 1015,9 hPa 0,0 l/m 20,5 km/h (4 Bft) NW22.5 305 0 min 0 W/m
15.01.2017 01:50 0,2 C 89 % 1015,9 hPa 0,0 l/m 19,2 km/h (3 Bft) NW22.5 305 0 min 0 W/m
15.01.2017 01:55 0,1 C 89 % 1015,9 hPa 0,0 l/m 18,3 km/h (3 Bft) NW22.5 305 0 min 0 W/m
15.01.2017 02:00 0,1 C 89 % 1014,9 hPa 0,0 l/m 15,6 km/h (3 Bft) W-NW22.5 290 0 min 0 W/m
15.01.2017 02:05 -0,2 C 89 % 1014,9 hPa 0,0 l/m 18,0 km/h (3 Bft) W-NW22.5 285 0 min 0 W/m
15.01.2017 02:10 -0,2 C 89 % 1014,9 hPa 0,0 l/m 15,3 km/h (3 Bft) W-NW22.5 290 0 min 0 W/m
15.01.2017 02:16 -0,3 C 89 % 1014,9 hPa 0,0 l/m 19,6 km/h (3 Bft) W-NW22.5 285 0 min 0 W/m
15.01.2017 02:20 -0,4 C 89 % 1015,9 hPa 0,0 l/m 21,0 km/h (4 Bft) W-NW22.5 295 0 min 0 W/m
15.01.2017 02:25 -0,5 C 89 % 1015,9 hPa 0,0 l/m 18,9 km/h (3 Bft) W-NW22.5 290 0 min 0 W/m
15.01.2017 02:30 -0,4 C 89 % 1015,9 hPa 0,0 l/m 20,7 km/h (4 Bft) W-NW 290 0 min 0 W/m
15.01.2017 02:35 -0,5 C 89 % 1015,9 hPa 0,0 l/m 16,3 km/h (3 Bft) W-NW22.5 290 0 min 0 W/m
15.01.2017 02:40 -0,6 C 89 % 1015,9 hPa 0,0 l/m 21,0 km/h (4 Bft) W-NW22.5 290 0 min 0 W/m
15.01.2017 02:45 -0,6 C 89 % 1015,9 hPa 0,0 l/m 17,6 km/h (3 Bft) W-NW 290 0 min 0 W/m
15.01.2017 02:50 -0,6 C 89 % 1015,9 hPa 0,0 l/m 20,5 km/h (4 Bft) W-NW 290 0 min 0 W/m
15.01.2017 02:55 -0,6 C 89 % 1015,9 hPa 0,0 l/m 22,6 km/h (4 Bft) W-NW22.5 295 0 min 0 W/m
15.01.2017 03:00 -0,6 C 89 % 1015,9 hPa 0,0 l/m 16,8 km/h (3 Bft) W-NW22.5 295 0 min 0 W/m
15.01.2017 03:05 -0,7 C 89 % 1015,9 hPa 0,0 l/m 14,6 km/h (3 Bft) W-NW 300 0 min 0 W/m
15.01.2017 03:10 -0,7 C 89 % 1015,9 hPa 0,0 l/m 15,7 km/h (3 Bft) W-NW22.5 295 0 min 0 W/m
15.01.2017 03:15 -0,7 C 90 % 1015,9 hPa 0,0 l/m 17,8 km/h (3 Bft) W-NW22.5 290 0 min 0 W/m
15.01.2017 03:20 -0,8 C 89 % 1015,9 hPa 0,0 l/m 20,0 km/h (4 Bft) W-NW22.5 295 0 min 0 W/m
15.01.2017 03:25 -0,8 C 89 % 1015,9 hPa 0,0 l/m 22,0 km/h (4 Bft) W-NW22.5 285 0 min 0 W/m
15.01.2017 03:30 -0,9 C 89 % 1015,9 hPa 0,0 l/m 21,6 km/h (4 Bft) W22.5 280 0 min 0 W/m
15.01.2017 03:35 -0,9 C 89 % 1015,9 hPa 0,0 l/m 21,4 km/h (4 Bft) W-NW22.5 285 0 min 0 W/m
15.01.2017 03:40 -0,9 C 90 % 1015,9 hPa 0,0 l/m 17,6 km/h (3 Bft) W 280 0 min 0 W/m
15.01.2017 03:45 -1,0 C 89 % 1015,9 hPa 0,0 l/m 17,5 km/h (3 Bft) W-NW 290 0 min 0 W/m
15.01.2017 03:50 -1,0 C 89 % 1015,9 hPa 0,0 l/m 17,3 km/h (3 Bft) W22.5 275 0 min 0 W/m
15.01.2017 03:55 -1,0 C 89 % 1015,9 hPa 0,0 l/m 18,6 km/h (3 Bft) W22.5 280 0 min 0 W/m
15.01.2017 04:00 -1,1 C 89 % 1015,9 hPa 0,0 l/m 15,1 km/h (3 Bft) W22.5 275 0 min 0 W/m
15.01.2017 04:05 -1,1 C 89 % 1015,9 hPa 0,0 l/m 17,5 km/h (3 Bft) W 280 0 min 0 W/m
15.01.2017 04:10 -1,0 C 89 % 1015,9 hPa 0,0 l/m 21,3 km/h (4 Bft) W22.5 280 0 min 0 W/m
15.01.2017 04:15 -1,1 C 89 % 1015,9 hPa 0,0 l/m 21,5 km/h (4 Bft) W22.5 275 0 min 0 W/m
15.01.2017 04:20 -1,1 C 89 % 1015,9 hPa 0,0 l/m 17,9 km/h (3 Bft) W22.5 275 0 min 0 W/m
15.01.2017 04:25 -1,2 C 89 % 1015,9 hPa 0,0 l/m 16,4 km/h (3 Bft) W22.5 280 0 min 0 W/m
15.01.2017 04:30 -1,2 C 89 % 1015,9 hPa 0,0 l/m 14,8 km/h (3 Bft) W-NW22.5 285 0 min 0 W/m
15.01.2017 04:35 -1,2 C 89 % 1015,9 hPa 0,0 l/m 17,3 km/h (3 Bft) W-NW22.5 285 0 min 0 W/m
15.01.2017 04:40 -1,1 C 89 % 1015,9 hPa 0,0 l/m 17,6 km/h (3 Bft) W-NW22.5 295 0 min 0 W/m
15.01.2017 04:45 -1,0 C 89 % 1016,9 hPa 0,0 l/m 17,3 km/h (3 Bft) W-NW22.5 290 0 min 0 W/m
15.01.2017 04:50 -1,0 C 89 % 1016,9 hPa 0,0 l/m 16,3 km/h (3 Bft) W22.5 280 0 min 0 W/m
15.01.2017 04:55 -1,0 C 89 % 1016,9 hPa 0,0 l/m 16,2 km/h (3 Bft) W22.5 280 0 min 0 W/m
15.01.2017 05:00 -1,1 C 89 % 1015,9 hPa 0,0 l/m 17,8 km/h (3 Bft) W22.5 280 0 min 0 W/m
15.01.2017 05:05 -1,3 C 89 % 1016,0 hPa 0,0 l/m 15,5 km/h (3 Bft) W 275 0 min 0 W/m
15.01.2017 05:10 -1,2 C 89 % 1015,9 hPa 0,0 l/m 16,4 km/h (3 Bft) W 280 0 min 0 W/m
15.01.2017 05:15 -1,2 C 89 % 1015,9 hPa 0,0 l/m 17,6 km/h (3 Bft) W22.5 275 0 min 0 W/m
15.01.2017 05:20 -1,4 C 89 % 1017,0 hPa 0,0 l/m 14,7 km/h (3 Bft) W22.5 275 0 min 0 W/m
15.01.2017 05:25 -1,4 C 89 % 1017,0 hPa 0,0 l/m 19,5 km/h (3 Bft) W22.5 270 0 min 0 W/m
15.01.2017 05:30 -1,4 C 89 % 1017,0 hPa 0,0 l/m 17,3 km/h (3 Bft) W22.5 270 0 min 0 W/m
15.01.2017 05:35 -1,4 C 89 % 1017,0 hPa 0,0 l/m 18,3 km/h (3 Bft) W22.5 265 0 min 0 W/m
15.01.2017 05:40 -1,4 C 89 % 1017,0 hPa 0,0 l/m 17,1 km/h (3 Bft) W 275 0 min 0 W/m
15.01.2017 05:45 -1,4 C 89 % 1017,0 hPa 0,0 l/m 18,0 km/h (3 Bft) W22.5 280 0 min 0 W/m
15.01.2017 05:50 -1,4 C 89 % 1017,0 hPa 0,0 l/m 16,8 km/h (3 Bft) W-NW 285 0 min 0 W/m
15.01.2017 05:55 -1,4 C 89 % 1017,0 hPa 0,0 l/m 16,6 km/h (3 Bft) W-NW22.5 285 0 min 0 W/m
15.01.2017 06:00 -1,4 C 89 % 1017,0 hPa 0,0 l/m 16,2 km/h (3 Bft) W-NW 285 0 min 0 W/m
15.01.2017 06:05 -1,4 C 89 % 1017,0 hPa 0,0 l/m 19,4 km/h (3 Bft) W-NW 285 0 min 0 W/m
15.01.2017 06:10 -1,4 C 89 % 1017,0 hPa 0,0 l/m 16,0 km/h (3 Bft) W-NW22.5 290 0 min 0 W/m
15.01.2017 06:15 -1,4 C 89 % 1017,0 hPa 0,0 l/m 18,3 km/h (3 Bft) W-NW 285 0 min 0 W/m
15.01.2017 06:20 -1,4 C 89 % 1017,0 hPa 0,0 l/m 17,2 km/h (3 Bft) W22.5 280 0 min 0 W/m
15.01.2017 06:25 -1,4 C 89 % 1017,0 hPa 0,0 l/m 21,3 km/h (4 Bft) W22.5 275 0 min 0 W/m
15.01.2017 06:30 -1,3 C 89 % 1017,0 hPa 0,0 l/m 16,4 km/h (3 Bft) W 280 0 min 0 W/m
15.01.2017 06:35 -1,4 C 89 % 1017,0 hPa 0,0 l/m 19,1 km/h (3 Bft) W 280 0 min 0 W/m
15.01.2017 06:40 -1,4 C 89 % 1017,0 hPa 0,0 l/m 12,1 km/h (2 Bft) W 280 0 min 0 W/m
15.01.2017 06:45 -1,6 C 89 % 1017,0 hPa 0,0 l/m 15,0 km/h (3 Bft) W 280 0 min 0 W/m
15.01.2017 06:50 -1,6 C 89 % 1017,0 hPa 0,0 l/m 15,5 km/h (3 Bft) W22.5 275 0 min 0 W/m
15.01.2017 06:55 -1,6 C 89 % 1017,0 hPa 0,0 l/m 13,4 km/h (3 Bft) W 275 0 min 0 W/m
15.01.2017 07:00 -1,6 C 89 % 1017,0 hPa 0,0 l/m 14,5 km/h (3 Bft) W 275 0 min 0 W/m
15.01.2017 07:05 -1,7 C 89 % 1017,0 hPa 0,0 l/m 13,6 km/h (3 Bft) W22.5 265 0 min 0 W/m
15.01.2017 07:10 -1,7 C 89 % 1017,0 hPa 0,0 l/m 14,5 km/h (3 Bft) W-SW22.5 255 0 min 0 W/m
15.01.2017 07:15 -1,7 C 89 % 1017,0 hPa 0,0 l/m 12,2 km/h (2 Bft) W-SW22.5 250 0 min 0 W/m
15.01.2017 07:20 -1,6 C 89 % 1017,0 hPa 0,0 l/m 12,9 km/h (3 Bft) W-SW22.5 255 0 min 0 W/m
15.01.2017 07:25 -1,7 C 89 % 1017,0 hPa 0,0 l/m 12,7 km/h (3 Bft) W22.5 275 0 min 0 W/m
15.01.2017 07:30 -1,6 C 89 % 1018,0 hPa 0,0 l/m 10,8 km/h (2 Bft) W-NW 285 0 min 0 W/m
15.01.2017 07:35 -1,6 C 89 % 1018,0 hPa 0,0 l/m 13,9 km/h (3 Bft) W 280 0 min 0 W/m
15.01.2017 07:40 -1,8 C 89 % 1018,0 hPa 0,0 l/m 13,8 km/h (3 Bft) W-NW 285 0 min 0 W/m
15.01.2017 07:46 -1,8 C 89 % 1018,0 hPa 0,0 l/m 11,2 km/h (2 Bft) W-NW22.5 290 0 min 0 W/m
15.01.2017 07:50 -1,9 C 89 % 1018,0 hPa 0,0 l/m 11,4 km/h (2 Bft) W-NW 290 0 min 0 W/m
15.01.2017 07:55 -2,0 C 89 % 1018,0 hPa 0,0 l/m 15,8 km/h (3 Bft) W 280 0 min 0 W/m
15.01.2017 08:00 -1,8 C 89 % 1018,0 hPa 0,0 l/m 12,5 km/h (2 Bft) W-NW22.5 285 0 min 0 W/m
15.01.2017 08:05 -1,7 C 89 % 1018,0 hPa 0,0 l/m 16,3 km/h (3 Bft) W-NW22.5 290 0 min 0 W/m
15.01.2017 08:10 -1,7 C 89 % 1018,0 hPa 0,0 l/m 13,1 km/h (3 Bft) W-NW22.5 295 0 min 0 W/m
15.01.2017 08:15 -1,6 C 89 % 1018,0 hPa 0,0 l/m 13,3 km/h (3 Bft) W-NW22.5 285 0 min 0 W/m
15.01.2017 08:20 -1,7 C 89 % 1018,0 hPa 0,0 l/m 14,5 km/h (3 Bft) W-NW22.5 290 0 min 0 W/m
15.01.2017 08:25 -1,5 C 89 % 1018,0 hPa 0,0 l/m 16,3 km/h (3 Bft) W-NW22.5 290 0 min 0 W/m
15.01.2017 08:30 -1,6 C 89 % 1018,0 hPa 0,0 l/m 17,9 km/h (3 Bft) W-NW22.5 285 0 min 0 W/m
15.01.2017 08:35 -1,4 C 89 % 1018,0 hPa 0,0 l/m 17,2 km/h (3 Bft) W-NW22.5 290 0 min 0 W/m
15.01.2017 08:40 -1,5 C 89 % 1018,0 hPa 0,0 l/m 16,6 km/h (3 Bft) W-NW 285 0 min 0 W/m
15.01.2017 08:46 -1,6 C 89 % 1018,0 hPa 0,0 l/m 18,1 km/h (3 Bft) W-NW22.5 285 0 min 0 W/m
15.01.2017 08:50 -1,5 C 89 % 1018,0 hPa 0,0 l/m 14,3 km/h (3 Bft) W-NW 285 0 min 0 W/m
15.01.2017 08:55 -1,5 C 89 % 1018,0 hPa 0,0 l/m 16,3 km/h (3 Bft) W22.5 280 0 min 0 W/m
15.01.2017 09:00 -1,5 C 89 % 1018,0 hPa 0,0 l/m 18,0 km/h (3 Bft) W-NW 290 0 min 0 W/m
15.01.2017 09:05 -1,5 C 89 % 1018,0 hPa 0,0 l/m 13,7 km/h (3 Bft) W-NW 285 0 min 0 W/m
15.01.2017 09:10 -1,5 C 89 % 1018,0 hPa 0,0 l/m 15,8 km/h (3 Bft) W-NW22.5 285 0 min 0 W/m
15.01.2017 09:15 -1,4 C 89 % 1019,0 hPa 0,0 l/m 17,3 km/h (3 Bft) W-NW 285 0 min 0 W/m
15.01.2017 09:20 -1,4 C 89 % 1019,0 hPa 0,0 l/m 14,8 km/h (3 Bft) W-NW22.5 285 0 min 0 W/m
15.01.2017 09:25 -1,4 C 89 % 1019,0 hPa 0,0 l/m 16,2 km/h (3 Bft) W-NW22.5 285 0 min 0 W/m
15.01.2017 09:30 -1,3 C 89 % 1019,0 hPa 0,0 l/m 16,0 km/h (3 Bft) W-NW 285 0 min 0 W/m
15.01.2017 09:35 -1,2 C 89 % 1019,0 hPa 0,0 l/m 18,3 km/h (3 Bft) W22.5 280 0 min 0 W/m
15.01.2017 09:40 -1,2 C 89 % 1019,0 hPa 0,0 l/m 15,6 km/h (3 Bft) W-NW22.5 285 0 min 0 W/m
15.01.2017 09:45 -1,0 C 89 % 1019,0 hPa 0,0 l/m 16,0 km/h (3 Bft) W22.5 275 0 min 0 W/m
15.01.2017 09:50 -0,9 C 89 % 1019,0 hPa 0,0 l/m 16,7 km/h (3 Bft) W22.5 275 0 min 0 W/m
15.01.2017 09:55 -0,8 C 89 % 1019,0 hPa 0,0 l/m 14,3 km/h (3 Bft) W 275 0 min 0 W/m
15.01.2017 10:00 -0,7 C 89 % 1019,0 hPa 0,0 l/m 15,8 km/h (3 Bft) W22.5 270 0 min 0 W/m
15.01.2017 10:05 -0,8 C 88 % 1019,0 hPa 0,0 l/m 13,6 km/h (3 Bft) W 280 0 min 0 W/m
15.01.2017 10:10 -0,7 C 88 % 1019,0 hPa 0,0 l/m 16,3 km/h (3 Bft) W22.5 270 0 min 0 W/m
15.01.2017 10:15 -0,5 C 88 % 1019,0 hPa 0,0 l/m 17,5 km/h (3 Bft) W22.5 270 0 min 0 W/m
15.01.2017 10:20 -0,4 C 88 % 1018,9 hPa 0,0 l/m 18,4 km/h (3 Bft) W22.5 275 0 min 0 W/m
15.01.2017 10:25 -0,4 C 88 % 1018,9 hPa 0,0 l/m 17,7 km/h (3 Bft) W22.5 275 0 min 0 W/m
15.01.2017 10:30 -0,4 C 88 % 1018,9 hPa 0,0 l/m 16,6 km/h (3 Bft) W22.5 275 0 min 0 W/m
15.01.2017 10:35 -0,4 C 88 % 1018,9 hPa 0,0 l/m 13,2 km/h (3 Bft) W22.5 265 0 min 0 W/m
15.01.2017 10:40 -0,4 C 88 % 1018,9 hPa 0,0 l/m 11,8 km/h (2 Bft) W22.5 270 0 min 0 W/m
15.01.2017 10:45 -0,4 C 88 % 1018,9 hPa 0,0 l/m 14,9 km/h (3 Bft) W22.5 265 0 min 0 W/m
15.01.2017 10:50 -0,3 C 88 % 1018,9 hPa 0,0 l/m 15,0 km/h (3 Bft) W22.5 265 0 min 0 W/m
15.01.2017 10:55 0,2 C 88 % 1018,9 hPa 0,0 l/m 15,6 km/h (3 Bft) W22.5 270 0 min 0 W/m
15.01.2017 11:00 0,2 C 88 % 1018,9 hPa 0,0 l/m 15,6 km/h (3 Bft) W22.5 270 0 min 0 W/m
15.01.2017 11:05 0,4 C 87 % 1018,9 hPa 0,0 l/m 15,6 km/h (3 Bft) W22.5 265 0 min 0 W/m
15.01.2017 11:10 0,5 C 87 % 1018,9 hPa 0,0 l/m 20,1 km/h (4 Bft) W22.5 280 0 min 0 W/m
15.01.2017 11:15 0,5 C 87 % 1018,9 hPa 0,0 l/m 17,8 km/h (3 Bft) W22.5 280 0 min 0 W/m
15.01.2017 11:20 0,5 C 87 % 1018,9 hPa 0,0 l/m 19,3 km/h (3 Bft) W22.5 280 0 min 0 W/m
15.01.2017 11:25 0,7 C 87 % 1018,9 hPa 0,0 l/m 21,1 km/h (4 Bft) W22.5 275 0 min 0 W/m
15.01.2017 11:30 0,7 C 87 % 1018,9 hPa 0,0 l/m 18,2 km/h (3 Bft) W22.5 275 0 min 0 W/m
15.01.2017 11:35 0,7 C 86 % 1018,9 hPa 0,0 l/m 20,1 km/h (4 Bft) W22.5 280 0 min 0 W/m
15.01.2017 11:40 0,7 C 86 % 1018,9 hPa 0,0 l/m 21,4 km/h (4 Bft) W22.5 280 0 min 0 W/m
15.01.2017 11:45 0,7 C 86 % 1018,9 hPa 0,0 l/m 19,1 km/h (3 Bft) W22.5 280 0 min 0 W/m
15.01.2017 11:50 0,8 C 86 % 1018,9 hPa 0,0 l/m 21,0 km/h (4 Bft) W22.5 280 0 min 0 W/m
15.01.2017 11:55 0,9 C 86 % 1018,9 hPa 0,0 l/m 17,5 km/h (3 Bft) W22.5 280 0 min 0 W/m
15.01.2017 12:00 0,9 C 86 % 1018,9 hPa 0,0 l/m 16,9 km/h (3 Bft) W22.5 275 0 min 0 W/m
15.01.2017 12:05 0,9 C 86 % 1018,9 hPa 0,0 l/m 20,3 km/h (4 Bft) W22.5 275 0 min 0 W/m
15.01.2017 12:10 1,0 C 86 % 1018,9 hPa 0,0 l/m 20,1 km/h (4 Bft) W22.5 280 0 min 0 W/m
15.01.2017 12:15 0,9 C 86 % 1018,9 hPa 0,0 l/m 19,0 km/h (3 Bft) W22.5 275 0 min 0 W/m
15.01.2017 12:20 1,0 C 86 % 1018,9 hPa 0,1 l/m 21,0 km/h (4 Bft) W22.5 275 0 min 0 W/m
15.01.2017 12:25 1,1 C 86 % 1018,9 hPa 0,0 l/m 21,6 km/h (4 Bft) W22.5 265 0 min 0 W/m
15.01.2017 12:30 1,1 C 86 % 1018,9 hPa 0,0 l/m 21,6 km/h (4 Bft) W22.5 270 0 min 0 W/m
15.01.2017 12:35 1,2 C 86 % 1018,9 hPa 0,0 l/m 18,2 km/h (3 Bft) W22.5 270 0 min 0 W/m
15.01.2017 12:40 1,1 C 86 % 1018,9 hPa 0,0 l/m 19,5 km/h (3 Bft) W22.5 275 0 min 0 W/m
15.01.2017 12:45 1,2 C 86 % 1018,9 hPa 0,0 l/m 17,4 km/h (3 Bft) W-SW22.5 250 0 min 0 W/m
15.01.2017 12:50 1,2 C 86 % 1018,9 hPa 0,0 l/m 15,7 km/h (3 Bft) W22.5 260 0 min 0 W/m
15.01.2017 12:55 1,2 C 86 % 1018,9 hPa 0,0 l/m 17,0 km/h (3 Bft) W22.5 260 0 min 0 W/m
15.01.2017 13:00 1,3 C 86 % 1018,9 hPa 0,0 l/m 20,1 km/h (4 Bft) W45 260 0 min 0 W/m
15.01.2017 13:05 1,5 C 85 % 1018,9 hPa 0,0 l/m 23,4 km/h (4 Bft) W45 260 0 min 0 W/m
15.01.2017 13:10 1,5 C 85 % 1018,9 hPa 0,1 l/m 22,3 km/h (4 Bft) W22.5 270 0 min 0 W/m
15.01.2017 13:15 1,4 C 85 % 1018,9 hPa 0,0 l/m 24,1 km/h (4 Bft) W22.5 265 0 min 0 W/m
15.01.2017 13:20 1,4 C 85 % 1018,9 hPa 0,0 l/m 20,6 km/h (4 Bft) W22.5 270 0 min 0 W/m
15.01.2017 13:25 1,4 C 85 % 1018,9 hPa 0,0 l/m 20,8 km/h (4 Bft) W45 270 0 min 0 W/m
15.01.2017 13:30 1,6 C 85 % 1018,9 hPa 0,0 l/m 17,5 km/h (3 Bft) W45 260 0 min 0 W/m
15.01.2017 13:35 1,5 C 85 % 1018,9 hPa 0,0 l/m 21,0 km/h (4 Bft) W-SW45 255 0 min 0 W/m
15.01.2017 13:40 1,6 C 85 % 1018,9 hPa 0,0 l/m 20,6 km/h (4 Bft) W-SW22.5 245 0 min 0 W/m
15.01.2017 13:45 1,6 C 85 % 1018,9 hPa 0,0 l/m 15,8 km/h (3 Bft) W-SW45 245 0 min 0 W/m
15.01.2017 13:50 1,6 C 85 % 1018,9 hPa 0,0 l/m 20,4 km/h (4 Bft) W-SW45 255 0 min 0 W/m
15.01.2017 13:55 1,6 C 85 % 1018,9 hPa 0,0 l/m 19,6 km/h (3 Bft) W-SW45 245 0 min 0 W/m
15.01.2017 14:00 1,6 C 85 % 1018,9 hPa 0,0 l/m 21,2 km/h (4 Bft) W-SW22.5 255 0 min 0 W/m
15.01.2017 14:05 1,7 C 85 % 1018,9 hPa 0,0 l/m 16,1 km/h (3 Bft) W22.5 260 0 min 0 W/m
15.01.2017 14:10 1,9 C 85 % 1018,9 hPa 0,1 l/m 18,3 km/h (3 Bft) W22.5 260 0 min 0 W/m
15.01.2017 14:15 1,8 C 85 % 1018,9 hPa 0,0 l/m 19,2 km/h (3 Bft) W-SW22.5 250 0 min 0 W/m
15.01.2017 14:20 1,8 C 85 % 1018,9 hPa 0,0 l/m 22,3 km/h (4 Bft) W22.5 280 0 min 0 W/m
15.01.2017 14:25 1,8 C 85 % 1018,9 hPa 0,0 l/m 19,2 km/h (3 Bft) SW67.5 230 0 min 0 W/m
15.01.2017 14:30 1,9 C 85 % 1018,9 hPa 0,0 l/m 13,6 km/h (3 Bft) W22.5 265 0 min 0 W/m
15.01.2017 14:35 1,9 C 85 % 1018,9 hPa 0,0 l/m 16,4 km/h (3 Bft) W22.5 260 0 min 0 W/m
15.01.2017 14:40 1,9 C 85 % 1018,9 hPa 0,0 l/m 15,8 km/h (3 Bft) W22.5 270 0 min 0 W/m
15.01.2017 14:45 1,6 C 85 % 1018,9 hPa 0,0 l/m 17,3 km/h (3 Bft) W-SW45 250 0 min 0 W/m
15.01.2017 14:50 1,6 C 85 % 1018,9 hPa 0,0 l/m 20,2 km/h (4 Bft) W22.5 265 0 min 0 W/m
15.01.2017 14:55 1,5 C 85 % 1018,9 hPa 0,0 l/m 18,3 km/h (3 Bft) W22.5 265 0 min 0 W/m
15.01.2017 15:00 1,5 C 86 % 1018,9 hPa 0,0 l/m 14,5 km/h (3 Bft) W45 260 0 min 0 W/m
15.01.2017 15:05 1,5 C 85 % 1018,9 hPa 0,0 l/m 12,1 km/h (2 Bft) W-SW22.5 240 0 min 0 W/m
15.01.2017 15:10 1,5 C 85 % 1018,9 hPa 0,0 l/m 14,1 km/h (3 Bft) W-SW22.5 240 0 min 0 W/m
15.01.2017 15:15 1,4 C 85 % 1019,9 hPa 0,0 l/m 14,9 km/h (3 Bft) W-SW45 250 0 min 0 W/m
15.01.2017 15:20 1,2 C 85 % 1019,9 hPa 0,0 l/m 17,7 km/h (3 Bft) W45 260 0 min 0 W/m
15.01.2017 15:25 1,1 C 86 % 1019,9 hPa 0,0 l/m 17,5 km/h (3 Bft) W22.5 260 0 min 0 W/m
15.01.2017 15:30 1,1 C 86 % 1019,9 hPa 0,0 l/m 14,3 km/h (3 Bft) W 265 0 min 0 W/m
15.01.2017 15:35 1,1 C 86 % 1019,9 hPa 0,0 l/m 11,6 km/h (2 Bft) W 270 0 min 0 W/m
15.01.2017 15:40 1,1 C 86 % 1019,9 hPa 0,0 l/m 11,4 km/h (2 Bft) W22.5 275 0 min 0 W/m
15.01.2017 15:45 1,1 C 86 % 1019,9 hPa 0,0 l/m 9,9 km/h (2 Bft) W22.5 260 0 min 0 W/m
15.01.2017 15:50 1,2 C 87 % 1019,9 hPa 0,0 l/m 10,3 km/h (2 Bft) SW22.5 225 0 min 0 W/m
15.01.2017 15:55 1,2 C 87 % 1019,9 hPa 0,0 l/m 7,4 km/h (2 Bft) SW 225 0 min 0 W/m
15.01.2017 16:01 1,0 C 86 % 1019,9 hPa 0,0 l/m 9,2 km/h (2 Bft) SW 230 0 min 0 W/m
15.01.2017 16:05 0,8 C 86 % 1019,9 hPa 0,0 l/m 6,9 km/h (2 Bft) SW 230 0 min 0 W/m
15.01.2017 16:10 0,8 C 87 % 1019,9 hPa 0,0 l/m 11,8 km/h (2 Bft) SW22.5 230 0 min 0 W/m
15.01.2017 16:15 0,8 C 87 % 1019,9 hPa 0,0 l/m 8,6 km/h (2 Bft) SW22.5 220 0 min 0 W/m
15.01.2017 16:20 0,8 C 87 % 1019,9 hPa 0,0 l/m 10,1 km/h (2 Bft) SW22.5 215 0 min 0 W/m
15.01.2017 16:25 0,7 C 87 % 1019,9 hPa 0,0 l/m 10,1 km/h (2 Bft) SW22.5 215 0 min 0 W/m
15.01.2017 16:30 0,7 C 87 % 1019,9 hPa 0,0 l/m 8,3 km/h (2 Bft) SW22.5 225 0 min 0 W/m
15.01.2017 16:35 0,7 C 87 % 1019,9 hPa 0,0 l/m 9,2 km/h (2 Bft) SW 215 0 min 0 W/m
15.01.2017 16:40 0,7 C 87 % 1019,9 hPa 0,0 l/m 9,3 km/h (2 Bft) SW22.5 220 0 min 0 W/m
15.01.2017 16:45 0,7 C 87 % 1019,9 hPa 0,0 l/m 8,9 km/h (2 Bft) SW22.5 220 0 min 0 W/m
15.01.2017 16:50 0,7 C 87 % 1019,9 hPa 0,0 l/m 4,7 km/h (1 Bft) S-SW 205 0 min 0 W/m
15.01.2017 16:55 0,7 C 87 % 1019,9 hPa 0,0 l/m 8,9 km/h (2 Bft) S-SW 210 0 min 0 W/m
15.01.2017 17:00 0,7 C 87 % 1019,9 hPa 0,0 l/m 7,5 km/h (2 Bft) SW 215 0 min 0 W/m
15.01.2017 17:05 0,7 C 87 % 1019,9 hPa 0,0 l/m 4,7 km/h (1 Bft) S-SW 210 0 min 0 W/m
15.01.2017 17:10 0,7 C 87 % 1019,9 hPa 0,0 l/m 5,9 km/h (2 Bft) SW 215 0 min 0 W/m
15.01.2017 17:15 0,7 C 87 % 1019,9 hPa 0,0 l/m 0,1 km/h (0 Bft) S-SW 210 0 min 0 W/m
15.01.2017 17:20 0,7 C 87 % 1019,9 hPa 0,0 l/m 0,6 km/h (0 Bft) S-SW 210 0 min 0 W/m
15.01.2017 17:25 0,6 C 87 % 1019,9 hPa 0,0 l/m 6,8 km/h (2 Bft) SW 215 0 min 0 W/m
15.01.2017 17:30 0,3 C 87 % 1019,9 hPa 0,0 l/m 8,8 km/h (2 Bft) SW22.5 220 0 min 0 W/m
15.01.2017 17:35 0,3 C 87 % 1019,9 hPa 0,0 l/m 9,6 km/h (2 Bft) SW 220 0 min 0 W/m
15.01.2017 17:40 0,3 C 87 % 1019,9 hPa 0,0 l/m 9,4 km/h (2 Bft) SW 225 0 min 0 W/m
15.01.2017 17:46 0,4 C 87 % 1019,9 hPa 0,0 l/m 5,7 km/h (2 Bft) SW 225 0 min 0 W/m
15.01.2017 17:50 0,4 C 87 % 1019,9 hPa 0,0 l/m 5,0 km/h (1 Bft) SW 225 0 min 0 W/m
15.01.2017 17:55 0,6 C 87 % 1019,9 hPa 0,0 l/m 6,1 km/h (2 Bft) S-SW 210 0 min 0 W/m
15.01.2017 18:00 0,7 C 88 % 1019,9 hPa 0,0 l/m 5,6 km/h (2 Bft) SW 225 0 min 0 W/m
15.01.2017 18:05 0,7 C 88 % 1019,9 hPa 0,0 l/m 4,5 km/h (1 Bft) SW 220 0 min 0 W/m
15.01.2017 18:10 0,7 C 88 % 1019,9 hPa 0,0 l/m 6,9 km/h (2 Bft) SW45 215 0 min 0 W/m
15.01.2017 18:15 0,7 C 88 % 1019,9 hPa 0,0 l/m 6,4 km/h (2 Bft) SW 225 0 min 0 W/m
15.01.2017 18:20 0,7 C 88 % 1019,9 hPa 0,0 l/m 5,9 km/h (2 Bft) SW 225 0 min 0 W/m
15.01.2017 18:25 0,7 C 88 % 1019,9 hPa 0,0 l/m 12,1 km/h (2 Bft) W-SW22.5 240 0 min 0 W/m
15.01.2017 18:30 0,7 C 88 % 1020,9 hPa 0,0 l/m 10,0 km/h (2 Bft) W-SW22.5 250 0 min 0 W/m
15.01.2017 18:35 0,7 C 88 % 1020,9 hPa 0,0 l/m 3,9 km/h (1 Bft) W-SW 250 0 min 0 W/m
15.01.2017 18:40 0,7 C 88 % 1020,9 hPa 0,0 l/m 7,2 km/h (2 Bft) W-SW 250 0 min 0 W/m
15.01.2017 18:45 0,8 C 88 % 1020,9 hPa 0,0 l/m 13,0 km/h (3 Bft) W22.5 260 0 min 0 W/m
15.01.2017 18:50 0,8 C 88 % 1020,9 hPa 0,0 l/m 8,3 km/h (2 Bft) W-SW22.5 250 0 min 0 W/m
15.01.2017 18:55 0,8 C 88 % 1020,9 hPa 0,0 l/m 7,2 km/h (2 Bft) W-SW 255 0 min 0 W/m
15.01.2017 19:00 0,8 C 88 % 1020,9 hPa 0,0 l/m 0,0 km/h (0 Bft) W-SW 255 0 min 0 W/m
15.01.2017 19:05 0,8 C 88 % 1020,9 hPa 0,0 l/m 3,6 km/h (1 Bft) W-SW 255 0 min 0 W/m
15.01.2017 19:10 0,8 C 88 % 1020,9 hPa 0,0 l/m 6,3 km/h (2 Bft) W 270 0 min 0 W/m
15.01.2017 19:15 0,8 C 88 % 1020,9 hPa 0,0 l/m 7,8 km/h (2 Bft) W22.5 265 0 min 0 W/m
15.01.2017 19:20 0,8 C 88 % 1020,9 hPa 0,0 l/m 9,7 km/h (2 Bft) W-SW 255 0 min 0 W/m
15.01.2017 19:25 0,9 C 88 % 1020,9 hPa 0,0 l/m 7,6 km/h (2 Bft) W 260 0 min 0 W/m
15.01.2017 19:30 0,9 C 88 % 1020,9 hPa 0,0 l/m 9,0 km/h (2 Bft) W-SW22.5 250 0 min 0 W/m
15.01.2017 19:35 0,9 C 88 % 1020,9 hPa 0,0 l/m 6,9 km/h (2 Bft) SW 230 0 min 0 W/m
15.01.2017 19:40 1,0 C 88 % 1020,9 hPa 0,0 l/m 8,3 km/h (2 Bft) W-SW22.5 245 0 min 0 W/m
15.01.2017 19:45 1,0 C 88 % 1020,9 hPa 0,0 l/m 6,7 km/h (2 Bft) W-NW 300 0 min 0 W/m
15.01.2017 19:50 1,0 C 88 % 1020,9 hPa 0,0 l/m 13,3 km/h (3 Bft) W-NW22.5 285 0 min 0 W/m
15.01.2017 19:55 1,0 C 88 % 1020,9 hPa 0,0 l/m 8,1 km/h (2 Bft) W-NW 300 0 min 0 W/m
15.01.2017 20:00 1,0 C 88 % 1020,9 hPa 0,0 l/m 6,1 km/h (2 Bft) W 275 0 min 0 W/m
15.01.2017 20:05 1,0 C 88 % 1020,9 hPa 0,0 l/m 6,4 km/h (2 Bft) W-NW 285 0 min 0 W/m
15.01.2017 20:10 1,0 C 88 % 1020,9 hPa 0,0 l/m 4,6 km/h (1 Bft) W-NW 285 0 min 0 W/m
15.01.2017 20:15 1,0 C 88 % 1020,9 hPa 0,0 l/m 3,5 km/h (1 Bft) W-NW 285 0 min 0 W/m
15.01.2017 20:20 1,0 C 88 % 1020,9 hPa 0,0 l/m 0,0 km/h (0 Bft) W-NW 285 0 min 0 W/m
15.01.2017 20:25 1,0 C 88 % 1020,9 hPa 0,0 l/m 0,0 km/h (0 Bft) W-NW 285 0 min 0 W/m
15.01.2017 20:30 1,0 C 88 % 1020,9 hPa 0,0 l/m 0,4 km/h (0 Bft) W-NW 285 0 min 0 W/m
15.01.2017 20:35 1,0 C 88 % 1020,9 hPa 0,0 l/m 0,0 km/h (0 Bft) W-NW 285 0 min 0 W/m
15.01.2017 20:40 1,0 C 88 % 1020,9 hPa 0,0 l/m 0,0 km/h (0 Bft) W-NW 285 0 min 0 W/m
15.01.2017 20:45 1,0 C 88 % 1020,9 hPa 0,0 l/m 0,0 km/h (0 Bft) W-NW 285 0 min 0 W/m
15.01.2017 20:50 1,0 C 88 % 1020,9 hPa 0,0 l/m 0,0 km/h (0 Bft) W-NW 285 0 min 0 W/m
15.01.2017 20:55 1,1 C 88 % 1020,9 hPa 0,0 l/m 0,0 km/h (0 Bft) W-NW 285 0 min 0 W/m
15.01.2017 21:00 1,1 C 88 % 1020,9 hPa 0,0 l/m 0,0 km/h (0 Bft) W-NW 285 0 min 0 W/m
15.01.2017 21:05 1,1 C 88 % 1020,9 hPa 0,0 l/m 0,0 km/h (0 Bft) W-NW 285 0 min 0 W/m
15.01.2017 21:10 1,1 C 88 % 1020,9 hPa 0,0 l/m 5,2 km/h (1 Bft) W-NW 285 0 min 0 W/m
15.01.2017 21:15 1,1 C 88 % 1020,9 hPa 0,0 l/m 5,9 km/h (2 Bft) W 280 0 min 0 W/m
15.01.2017 21:20 1,1 C 88 % 1020,9 hPa 0,0 l/m 3,0 km/h (1 Bft) W 280 0 min 0 W/m
15.01.2017 21:25 1,2 C 88 % 1020,9 hPa 0,0 l/m 3,2 km/h (1 Bft) W 280 0 min 0 W/m
15.01.2017 21:30 1,2 C 88 % 1020,9 hPa 0,0 l/m 0,0 km/h (0 Bft) W-NW 285 0 min 0 W/m
15.01.2017 21:35 1,2 C 88 % 1020,9 hPa 0,0 l/m 0,0 km/h (0 Bft) W-NW 285 0 min 0 W/m
15.01.2017 21:40 1,2 C 88 % 1020,9 hPa 0,0 l/m 0,0 km/h (0 Bft) W-NW 285 0 min 0 W/m
15.01.2017 21:45 1,1 C 88 % 1020,9 hPa 0,0 l/m 0,0 km/h (0 Bft) W-NW 285 0 min 0 W/m
15.01.2017 21:50 1,1 C 88 % 1020,9 hPa 0,0 l/m 0,0 km/h (0 Bft) W-NW 285 0 min 0 W/m
15.01.2017 21:55 1,1 C 88 % 1020,9 hPa 0,0 l/m 0,0 km/h (0 Bft) W-NW 285 0 min 0 W/m
15.01.2017 22:00 1,1 C 88 % 1020,9 hPa 0,0 l/m 0,2 km/h (0 Bft) W-NW 285 0 min 0 W/m
15.01.2017 22:05 1,0 C 88 % 1020,9 hPa 0,0 l/m 7,1 km/h (2 Bft) SW 225 0 min 0 W/m
15.01.2017 22:10 0,9 C 88 % 1020,9 hPa 0,0 l/m 8,4 km/h (2 Bft) SW 230 0 min 0 W/m
15.01.2017 22:15 0,7 C 88 % 1020,9 hPa 0,0 l/m 8,2 km/h (2 Bft) SW22.5 230 0 min 0 W/m
15.01.2017 22:20 0,7 C 88 % 1020,9 hPa 0,0 l/m 7,6 km/h (2 Bft) W-SW 240 0 min 0 W/m
15.01.2017 22:25 0,7 C 89 % 1020,9 hPa 0,0 l/m 7,2 km/h (2 Bft) W-SW 245 0 min 0 W/m
15.01.2017 22:30 0,7 C 89 % 1021,9 hPa 0,0 l/m 7,5 km/h (2 Bft) W-SW 245 0 min 0 W/m
15.01.2017 22:35 0,8 C 89 % 1021,9 hPa 0,0 l/m 5,9 km/h (2 Bft) W-SW 245 0 min 0 W/m
15.01.2017 22:40 0,9 C 89 % 1021,9 hPa 0,0 l/m 4,9 km/h (1 Bft) W-SW 245 0 min 0 W/m
15.01.2017 22:45 1,0 C 89 % 1021,9 hPa 0,0 l/m 7,4 km/h (2 Bft) W-SW 245 0 min 0 W/m
15.01.2017 22:50 0,9 C 89 % 1021,9 hPa 0,1 l/m 8,6 km/h (2 Bft) W-SW 255 0 min 0 W/m
15.01.2017 22:55 0,8 C 89 % 1021,9 hPa 0,0 l/m 8,0 km/h (2 Bft) W 260 0 min 0 W/m
15.01.2017 23:00 0,8 C 89 % 1021,9 hPa 0,0 l/m 7,9 km/h (2 Bft) W 260 0 min 0 W/m
15.01.2017 23:05 0,7 C 89 % 1021,9 hPa 0,0 l/m 7,4 km/h (2 Bft) W 260 0 min 0 W/m
15.01.2017 23:10 0,7 C 89 % 1021,9 hPa 0,0 l/m 5,9 km/h (2 Bft) W 260 0 min 0 W/m
15.01.2017 23:15 0,7 C 89 % 1021,9 hPa 0,0 l/m 8,3 km/h (2 Bft) W 260 0 min 0 W/m
15.01.2017 23:20 0,9 C 89 % 1021,9 hPa 0,0 l/m 11,1 km/h (2 Bft) W22.5 270 0 min 0 W/m
15.01.2017 23:25 1,0 C 89 % 1021,9 hPa 0,0 l/m 8,3 km/h (2 Bft) W-NW 285 0 min 0 W/m
15.01.2017 23:30 1,1 C 90 % 1021,9 hPa 0,0 l/m 9,2 km/h (2 Bft) W-NW 285 0 min 0 W/m
15.01.2017 23:35 1,1 C 90 % 1021,9 hPa 0,0 l/m 7,8 km/h (2 Bft) W22.5 265 0 min 0 W/m
15.01.2017 23:40 1,2 C 90 % 1021,9 hPa 0,0 l/m 7,0 km/h (2 Bft) W 260 0 min 0 W/m
15.01.2017 23:45 1,2 C 90 % 1021,9 hPa 0,0 l/m 8,1 km/h (2 Bft) W-SW 250 0 min 0 W/m
15.01.2017 23:50 1,2 C 90 % 1021,9 hPa 0,0 l/m 7,7 km/h (2 Bft) W22.5 260 0 min 0 W/m
15.01.2017 23:55 1,2 C 89 % 1021,9 hPa 0,0 l/m 6,4 km/h (2 Bft) W 270 0 min 0 W/m
_ Min-Zeit 07:55 13:05 01:20 - 19:00 - - - -
Minimum _ -2,0 C 85 % 1014,9 hPa - 0,0 km/h (0 Bft) - - - -
_ Max-Zeit 14:10 03:15 22:30 12:20 01:15 - - 00:00 00:00
Maximum _ 1,9 C 90 % 1021,9 hPa 0,1 l/m 29,8 km/h
NW (5 Bft)
- - 0 min 0 W/m
Durchschnitt _ 0,1 C 88 % 1018,6 hPa #0,5 l/m 13,8 km/h (3 Bft) W - #0 min. 0 W/m